Hourly Weather Barra de Santiago

Today, 1 October, Thursday

Time Temperature Precipitation Wind Pressure Humidity
00:00 +28°C° 0 mm 2 mps 758 mmHg 85%
01:00 +27°C° 0 mm 2 mps 758 mmHg 84%
02:00 +27°C° 0 mm 2 mps 758 mmHg 83%
03:00 +27°C° 0 mm 1 mps 757 mmHg 82%
04:00 +27°C° 0 mm 1 mps 757 mmHg 82%
05:00 +27°C° 0 mm 2 mps 758 mmHg 82%
06:00 +26°C° 0 mm 2 mps 758 mmHg 82%
07:00 +28°C° 0 mm 1 mps 758 mmHg 78%
08:00 +30°C° 0 mm 1 mps 758 mmHg 73%
09:00 +32°C° 0 mm 1 mps 759 mmHg 69%
10:00 +32°C° 0 mm 2 mps 758 mmHg 69%
11:00 +32°C° 0 mm 2 mps 757 mmHg 70%
12:00 +34°C° 0 mm 3 mps 757 mmHg 70%
13:00 +33°C° 0.3 mm 3 mps 756 mmHg 73%
14:00 +33°C° 0.3 mm 3 mps 756 mmHg 75%
15:00 +31°C° 0.3 mm 3 mps 755 mmHg 78%
16:00 +30°C° 0.1 mm 3 mps 755 mmHg 82%
17:00 +29°C° 0.1 mm 2 mps 756 mmHg 85%
18:00 +28°C° 0.1 mm 2 mps 756 mmHg 89%
19:00 +28°C° 0.2 mm 3 mps 757 mmHg 90%
20:00 +27°C° 0.2 mm 3 mps 758 mmHg 92%
21:00 +27°C° 0.2 mm 4 mps 758 mmHg 93%
22:00 +27°C° 0.1 mm 4 mps 758 mmHg 93%
23:00 +27°C° 0.1 mm 4 mps 757 mmHg 93%

Tomorrow, 2 October, Friday

Time Temperature Precipitation Wind Pressure Humidity
00:00 +26°C° 0.1 mm 3 mps 757 mmHg 93%
01:00 +26°C° 0 mm 3 mps 757 mmHg 91%
02:00 +26°C° 0 mm 3 mps 756 mmHg 90%
03:00 +26°C° 0 mm 3 mps 756 mmHg 88%
04:00 +26°C° 0 mm 3 mps 756 mmHg 87%
05:00 +26°C° 0 mm 3 mps 756 mmHg 87%
06:00 +26°C° 0 mm 3 mps 756 mmHg 86%
07:00 +27°C° 0 mm 2 mps 757 mmHg 81%
08:00 +29°C° 0 mm 2 mps 757 mmHg 76%
09:00 +31°C° 0 mm 1 mps 758 mmHg 70%
10:00 +31°C° 0.1 mm 2 mps 757 mmHg 71%
11:00 +32°C° 0.1 mm 2 mps 757 mmHg 71%
12:00 +33°C° 0.1 mm 3 mps 756 mmHg 71%
13:00 +32°C° 0.6 mm 2 mps 755 mmHg 73%
14:00 +31°C° 0.6 mm 2 mps 755 mmHg 75%
15:00 +31°C° 0.6 mm 2 mps 754 mmHg 78%
16:00 +30°C° 0.2 mm 2 mps 754 mmHg 81%
17:00 +29°C° 0.2 mm 2 mps 755 mmHg 84%
18:00 +28°C° 0.2 mm 2 mps 755 mmHg 87%
19:00 +28°C° 1.2 mm 2 mps 756 mmHg 89%
20:00 +28°C° 1.2 mm 2 mps 756 mmHg 89%
21:00 +28°C° 1.2 mm 2 mps 757 mmHg 89%
22:00 +27°C° 1.1 mm 2 mps 757 mmHg 90%
23:00 +27°C° 1.1 mm 2 mps 756 mmHg 90%

Day after tomorrow, 3 October, Saturday

Time Temperature Precipitation Wind Pressure Humidity
00:00 +27°C° 1.1 mm 2 mps 756 mmHg 91%
01:00 +27°C° 0.2 mm 2 mps 756 mmHg 91%
02:00 +26°C° 0.2 mm 2 mps 756 mmHg 92%
03:00 +26°C° 0.2 mm 2 mps 755 mmHg 93%
04:00 +26°C° 0.4 mm 2 mps 756 mmHg 91%
05:00 +26°C° 0.4 mm 2 mps 756 mmHg 90%
06:00 +26°C° 0.4 mm 3 mps 756 mmHg 88%
07:00 +28°C° 0.5 mm 3 mps 756 mmHg 84%
08:00 +29°C° 0.5 mm 3 mps 757 mmHg 80%
09:00 +30°C° 0.5 mm 3 mps 757 mmHg 76%
10:00 +31°C° 0 mm 3 mps 757 mmHg 74%
11:00 +33°C° 0 mm 3 mps 756 mmHg 71%
12:00 +34°C° 0 mm 3 mps 755 mmHg 69%
13:00 +33°C° 0.3 mm 3 mps 755 mmHg 74%
14:00 +31°C° 0.3 mm 3 mps 754 mmHg 79%
15:00 +30°C° 0.3 mm 3 mps 754 mmHg 84%
16:00 +29°C° 0.2 mm 2 mps 754 mmHg 86%
17:00 +29°C° 0.2 mm 2 mps 755 mmHg 88%
18:00 +28°C° 0.2 mm 1 mps 755 mmHg 90%
19:00 +28°C° 0.6 mm 1 mps 756 mmHg 90%
20:00 +28°C° 0.6 mm 1 mps 757 mmHg 91%
21:00 +27°C° 0.6 mm 1 mps 757 mmHg 92%
22:00 +27°C° 1.5 mm 2 mps 757 mmHg 92%
23:00 +27°C° 1.5 mm 3 mps 757 mmHg 92%

4 October, Sunday

Time Temperature Precipitation Wind Pressure Humidity
00:00 +26°C° 1.5 mm 3 mps 757 mmHg 93%
01:00 +26°C° 0.8 mm 3 mps 757 mmHg 92%
02:00 +26°C° 0.8 mm 3 mps 757 mmHg 92%
03:00 +26°C° 0.8 mm 3 mps 756 mmHg 92%
04:00 +26°C° 0.4 mm 3 mps 756 mmHg 92%
05:00 +26°C° 0.4 mm 3 mps 756 mmHg 92%
06:00 +26°C° 0.4 mm 2 mps 756 mmHg 92%
07:00 +27°C° 0.3 mm 2 mps 757 mmHg 87%
08:00 +29°C° 0.3 mm 2 mps 757 mmHg 83%
09:00 +30°C° 0.3 mm 1 mps 758 mmHg 78%
10:00 +31°C° 0.9 mm 2 mps 757 mmHg 79%
11:00 +31°C° 0.9 mm 2 mps 757 mmHg 80%
12:00 +31°C° 0.9 mm 3 mps 757 mmHg 81%
13:00 +30°C° 1 mm 3 mps 756 mmHg 85%
14:00 +29°C° 1 mm 3 mps 756 mmHg 89%
15:00 +28°C° 1 mm 4 mps 755 mmHg 93%
16:00 +28°C° 2.2 mm 3 mps 756 mmHg 94%
17:00 +27°C° 2.2 mm 3 mps 756 mmHg 95%
18:00 +27°C° 2.2 mm 2 mps 756 mmHg 96%
19:00 +27°C° 2.2 mm 2 mps 757 mmHg 97%
20:00 +27°C° 2.2 mm 2 mps 757 mmHg 97%
21:00 +27°C° 2.2 mm 2 mps 758 mmHg 97%
22:00 +27°C° 1.9 mm 2 mps 758 mmHg 97%
23:00 +26°C° 1.9 mm 3 mps 758 mmHg 97%

5 October, Monday

Time Temperature Precipitation Wind Pressure Humidity
00:00 +26°C° 1.9 mm 3 mps 757 mmHg 97%
01:00 +26°C° 1 mm 3 mps 757 mmHg 97%
02:00 +26°C° 1 mm 3 mps 757 mmHg 96%
03:00 +26°C° 1 mm 2 mps 757 mmHg 96%
04:00 +26°C° 0.7 mm 2 mps 757 mmHg 95%
05:00 +26°C° 0.7 mm 2 mps 757 mmHg 95%
06:00 +26°C° 0.7 mm 2 mps 757 mmHg 94%
07:00 +28°C° 0.2 mm 2 mps 758 mmHg 90%
08:00 +29°C° 0.2 mm 2 mps 758 mmHg 86%
09:00 +30°C° 0.2 mm 2 mps 758 mmHg 82%
10:00 +30°C° 1 mm 3 mps 758 mmHg 83%
11:00 +31°C° 0.9 mm 3 mps 757 mmHg 84%
12:00 +32°C° 0.9 mm 4 mps 757 mmHg 86%
13:00 +32°C° 1.7 mm 4 mps 756 mmHg 87%
14:00 +30°C° 1.7 mm 4 mps 756 mmHg 88%
15:00 +30°C° 1.7 mm 4 mps 755 mmHg 89%
16:00 +29°C° 1 mm 3 mps 755 mmHg 90%
17:00 +28°C° 1 mm 3 mps 756 mmHg 92%
18:00 +28°C° 1 mm 2 mps 756 mmHg 93%
19:00 +27°C° 0.1 mm 2 mps 756 mmHg 93%
20:00 +27°C° 0.1 mm 2 mps 757 mmHg 92%
21:00 +27°C° 0.1 mm 2 mps 757 mmHg 92%
22:00 +27°C° 0.1 mm 3 mps 757 mmHg 91%
23:00 +27°C° 0.1 mm 3 mps 757 mmHg 91%

6 October, Tuesday

Time Temperature Precipitation Wind Pressure Humidity
00:00 +27°C° 0.1 mm 3 mps 757 mmHg 90%
01:00 +27°C° 0 mm 3 mps 756 mmHg 90%
02:00 +27°C° 0 mm 3 mps 756 mmHg 90%
03:00 +26°C° 0 mm 3 mps 755 mmHg 90%
04:00 +26°C° 0.6 mm 3 mps 755 mmHg 90%
05:00 +26°C° 0.6 mm 3 mps 756 mmHg 91%
06:00 +26°C° 0.6 mm 3 mps 756 mmHg 92%
07:00 +28°C° 0.6 mm 3 mps 756 mmHg 88%
08:00 +29°C° 0.6 mm 3 mps 756 mmHg 85%
09:00 +31°C° 0.6 mm 3 mps 757 mmHg 82%
10:00 +32°C° 0.9 mm 4 mps 756 mmHg 83%
11:00 +32°C° 0.9 mm 4 mps 756 mmHg 84%
12:00 +32°C° 0.9 mm 5 mps 756 mmHg 86%
13:00 +32°C° 0.6 mm 5 mps 755 mmHg 86%
14:00 +30°C° 0.6 mm 4 mps 754 mmHg 86%
15:00 +30°C° 0.6 mm 4 mps 754 mmHg 86%
16:00 +29°C° 1.4 mm 3 mps 754 mmHg 87%
17:00 +29°C° 1.4 mm 3 mps 754 mmHg 88%
18:00 +28°C° 1.4 mm 2 mps 755 mmHg 89%
19:00 +28°C° 1.8 mm 2 mps 755 mmHg 90%
20:00 +27°C° 1.8 mm 2 mps 756 mmHg 90%
21:00 +27°C° 1.8 mm 1 mps 756 mmHg 91%
22:00 +27°C° 0.7 mm 1 mps 756 mmHg 90%
23:00 +27°C° 0.7 mm 2 mps 756 mmHg 90%
Show more